PA3DZX-13 Weather Reports


time (UTC)temp
F
wind
direction
speed
knots
gust
knots
rain 1hr
in
rain 24hr
in
rain mn
in
humidity
%
barometer
mb
20260507024030 41 337 1.7 3.5 0.00 0.00 0.00 93 1012.9
20260507022530 42 343 1.7 5.2 0.00 0.00 0.00 90 1012.8
20260507021029 42 339 3.5 5.2 0.00 0.00 0.00 91 1012.9
20260507015529 42 329 3.5 5.2 0.00 0.00 0.00 90 1012.8
20260507014029 44 332 3.5 5.2 0.00 0.00 0.00 90 1012.6
20260507012529 44 338 3.5 5.2 0.00 0.00 0.00 90 1012.5
20260507011028 44 339 3.5 5.2 0.00 0.00 0.00 90 1012.4
20260507005528 44 347 1.7 5.2 0.00 0.00 0.00 88 1012.4
20260507004028 44 341 1.7 5.2 0.00 0.00 0.00 88 1012.3
20260507002529 44 343 1.7 5.2 0.00 0.00 0.00 87 1012.3
20260507001028 44 338 1.7 5.2 0.00 0.00 0.00 86 1012.3
20260506235527 46 342 3.5 7.0 0.00 0.00 0.00 85 1012.2
20260506234027 46 340 3.5 7.0 0.00 0.00 0.00 85 1012.2
20260506232526 46 342 5.2 7.0 0.00 0.00 0.00 83 1012.1
20260506231025 46 340 3.5 7.0 0.00 0.00 0.00 83 1012.0
20260506225525 48 346 3.5 9.6 0.00 0.00 0.00 83 1012.0
20260506224025 48 333 5.2 9.6 0.00 0.00 0.00 81 1011.9
20260506222525 48 329 3.5 7.0 0.00 0.00 0.00 82 1011.9
20260506221025 46 333 1.7 3.5 0.00 0.00 0.00 83 1011.8
20260506215525 46 328 3.5 3.5 0.00 0.00 0.00 83 1011.7
20260506214025 48 332 3.5 3.5 0.00 0.00 0.00 81 1011.7
20260506212525 48 338 3.5 3.5 0.00 0.00 0.00 80 1011.6
20260506211025 48 346 1.7 5.2 0.00 0.00 0.00 80 1011.6
20260506205525 48 358 3.5 7.0 0.00 0.00 0.00 78 1011.6
20260506204024 48 11 5.2 9.6 0.00 0.00 0.00 76 1011.4
20260506202524 48 13 5.2 7.0 0.00 0.00 0.00 75 1011.4
20260506201024 48 7 5.2 9.6 0.00 0.00 0.00 75 1011.3
20260506195524 48 15 5.2 9.6 0.00 0.00 0.00 75 1011.1
20260506194023 48 16 5.2 9.6 0.00 0.00 0.00 74 1011.0
20260506192523 48 17 5.2 9.6 0.00 0.00 0.00 76 1010.9
20260506191023 48 23 3.5 7.0 0.00 0.00 0.00 78 1010.7
20260506185522 50 36 5.2 11.3 0.00 0.00 0.00 74 1010.5
20260506184022 50 33 5.2 11.3 0.00 0.00 0.00 74 1010.4
20260506182522 50 31 7.0 13.0 0.00 0.00 0.00 72 1010.2
20260506181021 50 43 7.0 13.0 0.00 0.00 0.00 70 1009.9
20260506175521 50 44 5.2 9.6 0.00 0.00 0.00 70 1009.8
20260506174021 50 47 5.2 11.3 0.00 0.00 0.00 71 1009.8
20260506172521 50 47 7.0 11.3 0.00 0.00 0.00 72 1009.8
20260506171020 50 64 5.2 11.3 0.00 0.00 0.00 70 1009.7
20260506165520 50 61 7.0 14.8 0.00 0.00 0.00 73 1009.8
20260506164020 50 47 7.0 13.0 0.00 0.00 0.00 75 1009.8
20260506162520 50 48 7.0 14.8 0.00 0.00 0.00 75 1009.9
20260506161019 50 42 11.3 17.4 0.00 0.00 0.00 75 1009.9
20260506155519 50 30 11.3 19.1 0.00 0.00 0.00 76 1009.8
20260506154018 48 32 13.0 19.1 0.00 0.00 0.00 79 1009.7
20260506152518 48 39 9.6 14.8 0.00 0.00 0.00 82 1009.5
20260506151018 48 33 9.6 14.8 0.00 0.00 0.00 81 1009.4
20260506145518 48 25 13.0 17.4 0.00 0.00 0.00 81 1009.5
20260506144017 50 30 11.3 17.4 0.00 0.00 0.00 83 1009.3
20260506142517 48 25 7.0 13.0 0.00 0.00 0.00 88 1009.3
20260506141017 48 25 7.0 13.0 0.00 0.00 0.00 88 1009.3
20260506135516 48 19 9.6 14.8 0.00 0.00 0.00 88 1009.2
20260506134017 48 19 9.6 14.8 0.00 0.00 0.00 89 1009.2
20260506132516 48 21 9.6 14.8 0.00 0.00 0.00 86 1009.2
20260506131014 48 20 9.6 13.0 0.00 0.00 0.00 87 1009.2
20260506125514 48 22 11.3 14.8 0.00 0.00 0.00 86 1009.1
20260506124014 48 23 9.6 17.4 0.00 0.00 0.00 87 1009.0
20260506122514 48 16 9.6 13.0 0.00 0.00 0.00 86 1008.9
20260506121013 48 8 9.6 13.0 0.00 0.00 0.00 86 1008.8
20260506115513 48 15 7.0 13.0 0.00 0.00 0.00 87 1008.7
20260506114013 48 14 7.0 13.0 0.00 0.00 0.00 89 1008.6
20260506112513 48 20 7.0 14.8 0.00 0.00 0.00 89 1008.5
20260506111012 48 12 5.2 11.3 0.00 0.00 0.00 93 1008.5
20260506105512 46 17 7.0 11.3 0.00 0.00 0.00 93 1008.5
20260506104011 46 21 7.0 11.3 0.00 0.00 0.00 90 1008.4
20260506102511 46 21 7.0 13.0 0.00 0.00 0.00 92 1008.3
20260506101011 46 23 9.6 14.8 0.00 0.00 0.00 92 1008.3
20260506095510 46 23 7.0 11.3 0.01 0.00 0.00 94 1008.2
20260506094010 46 26 7.0 9.6 0.01 0.00 0.00 90 1008.2
20260506092510 46 27 7.0 13.0 0.02 0.00 0.00 92 1008.1
20260506091009 46 25 5.2 11.3 0.03 0.00 0.00 92 1008.1
20260506085509 46 20 5.2 11.3 0.02 0.00 0.00 92 1008.1
20260506084008 44 18 7.0 11.3 0.03 0.00 0.00 91 1008.0
20260506082508 44 16 5.2 9.6 0.01 0.00 0.00 91 1007.9
20260506081007 44 18 5.2 9.6 0.01 0.00 0.00 91 1007.9
20260506072506 44 41 9.6 14.8 0.01 0.00 0.00 92 1007.6
20260506071005 44 32 11.3 14.8 0.02 0.00 0.00 92 1007.5
20260506062503 46 31 11.3 19.1 0.01 0.00 0.00 91 1007.3
20260506061003 46 27 9.6 13.0 0.01 0.00 0.00 94 1007.2
20260506051001 46 15 7.0 9.6 0.00 0.00 0.00 96 1007.1
20260506044000 46 1 5.2 9.6 0.01 0.00 0.00 97 1007.1
20260506042500 46 355 5.2 9.6 0.01 0.00 0.00 98 1007.1
20260506040959 46 356 5.2 7.0 0.05 0.00 0.00 98 1007.2
20260506035459 46 352 3.5 5.2 0.06 0.00 0.00 98 1007.4
20260506033959 46 351 3.5 7.0 0.06 0.00 0.00 99 1007.4
20260506032459 46 354 3.5 7.0 0.07 0.00 0.00 98 1007.5
20260506030959 46 4 5.2 9.6 0.05 0.00 0.00 98 1007.6
20260506025500 46 2 5.2 9.6 0.05 0.00 0.00 98 1007.6